RADUGA-1 8 [-]

Last updated on July 6, 2021, 3:35 p.m. UTC

1 34264U 09010A   21187.06637652 -.00000272  00000-0  00000+0 0  9994
2 34264   8.5515  56.7228 0015475 353.3825 201.9885  0.99824237 45136
UTC
Height (km)
Latitude
Longitude
Inclination
Orbital Period
UTC large
Height (km)
Speed (km/s)
/
Latitude / Longitude
Inclination (degrees)
Orbital Period (minutes)
Azimuth
Elevation
Range (km)
Doppler Factor
iOS Compass Heading
iOS Angle